TimePST,TemperatureF,Dew PointF,Humidity,Sea Level PressureIn,VisibilityMPH,Wind Direction,Wind SpeedMPH,Gust SpeedMPH,PrecipitationIn,Events,Conditions,WindDirDegrees,DateUTC
12:53 AM,28.9,25.0,85,30.11,10.0,SSW,3.5,-,N/A,,Clear,210,2013-02-06 08:53:00
1:53 AM,28.0,24.1,85,30.12,10.0,Calm,Calm,-,N/A,,Partly Cloudy,0,2013-02-06 09:53:00
2:53 AM,26.1,24.1,92,30.13,10.0,Calm,Calm,-,N/A,,Mostly Cloudy,0,2013-02-06 10:53:00
3:53 AM,26.1,24.1,92,30.15,10.0,Calm,Calm,-,N/A,,Mostly Cloudy,0,2013-02-06 11:53:00
4:53 AM,26.1,24.1,92,30.14,10.0,Calm,Calm,-,N/A,,Partly Cloudy,0,2013-02-06 12:53:00
5:53 AM,24.1,21.9,91,30.16,10.0,South,3.5,-,N/A,,Clear,170,2013-02-06 13:53:00
6:01 AM,24.8,21.2,86,30.10,7.0,South,3.5,-,N/A,,Clear,190,2013-02-06 14:01:00
6:53 AM,23.0,21.0,92,30.17,10.0,Calm,Calm,-,N/A,,Scattered Clouds,0,2013-02-06 14:53:00
7:53 AM,25.0,23.0,92,30.19,10.0,Calm,Calm,-,N/A,,Scattered Clouds,0,2013-02-06 15:53:00
8:53 AM,28.9,26.1,89,30.17,10.0,SSE,3.5,-,N/A,,Scattered Clouds,160,2013-02-06 16:53:00
9:53 AM,33.1,28.0,82,30.17,10.0,SSE,8.1,-,N/A,,Scattered Clouds,150,2013-02-06 17:53:00
10:53 AM,37.0,28.0,70,30.14,10.0,South,11.5,-,N/A,,Scattered Clouds,170,2013-02-06 18:53:00
11:53 AM,39.9,26.1,58,30.10,10.0,SSE,11.5,-,N/A,,Scattered Clouds,160,2013-02-06 19:53:00
12:53 PM,41.0,27.0,57,30.09,10.0,SSE,8.1,-,N/A,,Scattered Clouds,160,2013-02-06 20:53:00
1:53 PM,44.1,28.0,53,30.04,10.0,SSE,8.1,-,N/A,,Scattered Clouds,160,2013-02-06 21:53:00
2:53 PM,45.0,27.0,49,30.01,10.0,SSE,9.2,-,N/A,,Mostly Cloudy,160,2013-02-06 22:53:00
3:53 PM,45.0,28.0,52,29.99,10.0,SSE,6.9,-,N/A,,Mostly Cloudy,150,2013-02-06 23:53:00
4:53 PM,41.0,27.0,57,29.98,10.0,SSE,8.1,-,N/A,,Mostly Cloudy,160,2013-02-07 00:53:00
5:53 PM,39.0,28.0,65,29.97,10.0,SSE,12.7,-,N/A,,Mostly Cloudy,160,2013-02-07 01:53:00
6:53 PM,37.9,21.9,53,29.98,10.0,South,10.4,-,N/A,,Mostly Cloudy,180,2013-02-07 02:53:00
7:53 PM,35.1,21.9,59,29.99,10.0,SW,3.5,-,N/A,,Mostly Cloudy,230,2013-02-07 03:53:00
8:53 PM,34.0,21.9,61,29.99,10.0,SSE,4.6,-,N/A,,Scattered Clouds,160,2013-02-07 04:53:00
9:53 PM,34.0,19.9,56,29.97,10.0,SSE,3.5,-,N/A,,Scattered Clouds,160,2013-02-07 05:53:00
10:53 PM,33.1,21.9,64,29.98,10.0,SW,4.6,-,N/A,,Partly Cloudy,220,2013-02-07 06:53:00
11:53 PM,34.0,26.1,73,29.96,10.0,South,6.9,-,N/A,,Mostly Cloudy,170,2013-02-07 07:53:00